Temp
8 8 8 8 8 8 8 7 7 7 7 7 7 6 6 5 4 5 7 5 4 5 6 7 9 10 11 11 11 13 15 16 18 20 22 23 23 24 25 23 24 25 25 26 24 27 28 23 25 29 27 26 26 25
8 8 8 8 8 7 7 7 7 7 7 7 7 7 7 6 6 4 5 4 4 4 7 9 10 10 10 11 10 11 14 13 16 19 19 19 22 21 22 25 21 25 25 26 26 27 21 21 21 22 22 22 23 24
8 8 8 8 7 7 7 7 6 6 6 7 7 7 6 6 5 4 3 3 4 4 6 7 13 13 13 14 12 10 13 14 15 15 17 19 21 20 24 24 22 20 19 24 22 23 23 22 22 22 23 23 23 23
7 7 7 7 7 7 7 6 6 6 7 7 7 7 7 6 6 5 4 4 4 4 5 9 13 13 14 14 13 15 15 14 13 14 17 19 22 17 21 21 23 21 19 21 22 23 22 22 22 24 25 25 24 24
7 7 7 7 7 7 7 7 7 7 7 7 6 7 6 6 6 6 7 7 5 4 6 6 12 15 14 15 14 14 14 11 12 15 18 21 18 19 18 20 23 20 22 24 25 21 21 22 23 24 24 25 25 26
7 7 7 7 6 6 6 6 6 7 6 7 7 7 7 6 6 6 7 7 7 4 4 8 11 15 14 15 14 16 13 12 13 13 18 17 17 19 22 22 21 19 19 20 21 21 21 23 24 24 25 24 25 25
6 7 6 6 6 6 6 6 6 7 7 7 7 8 7 7 7 6 7 7 7 5 5 8 11 13 14 15 14 14 12 14 14 15 15 17 18 18 21 23 22 20 20 20 20 21 22 23 24 25 25 25 25 25
6 6 6 6 6 6 6 6 6 6 7 7 8 8 8 7 8 8 8 7 6 6 6 8 11 12 14 14 15 15 16 14 16 17 16 19 17 18 22 19 17 18 19 20 21 21 22 23 24 24 24 24 24 24
6 6 6 6 6 6 6 6 6 6 7 8 8 8 8 8 8 7 8 8 7 6 7 9 11 14 14 14 14 15 16 17 16 18 18 17 18 21 18 15 15 16 17 19 20 21 22 22 23 23 23 24 23 23
6 6 5 5 6 6 6 5 5 6 7 8 8 7 8 8 7 7 7 7 6 6 6 8 10 11 13 13 15 16 14 17 19 17 14 18 19 14 15 15 15 16 18 19 20 21 21 22 22 22 22 22 22 22
6 6 5 5 5 6 5 5 5 5 7 7 7 7 8 8 8 9 8 8 8 9 8 9 10 11 13 13 14 13 17 16 20 17 18 17 19 16 15 15 15 16 17 18 20 21 21 20 21 21 21 20 20 20
5 5 5 5 5 5 6 5 4 5 4 4 4 5 7 8 9 8 9 9 10 12 10 10 11 11 13 13 13 14 16 16 18 14 18 19 16 13 14 15 16 16 17 19 19 20 20 20 20 21 20 19 19 18
5 5 6 5 5 6 5 5 4 4 5 4 4 5 6 8 7 8 10 11 11 11 11 10 11 11 12 12 12 14 17 16 12 17 18 17 12 14 15 16 16 17 17 18 18 19 19 19 18 18 18 18 17 17
5 5 6 6 6 6 5 5 5 5 5 4 6 5 8 8 7 8 7 8 9 10 10 9 9 11 11 13 13 17 13 14 16 17 18 15 13 14 15 15 15 15 15 16 16 16 17 17 16 17 17 17 17 16
5 6 6 6 6 5 5 5 5 5 5 4 6 6 9 9 8 8 7 7 9 9 10 9 9 9 12 13 14 15 16 16 17 17 15 13 14 14 14 14 14 14 14 15 15 15 16 16 16 16 16 16 15 15
5 5 6 5 5 5 5 5 5 5 4 4 4 6 8 8 9 9 8 8 9 10 10 9 10 12 14 13 16 17 17 17 17 14 14 14 14 14 13 13 13 12 13 14 14 14 15 15 15 15 15 15 15 15
5 5 5 4 5 5 5 5 4 4 5 5 6 6 6 7 8 9 9 10 10 10 11 11 13 12 12 15 16 15 17 14 14 13 14 14 14 14 13 13 13 13 13 13 14 14 15 15 15 15 15 15 15 15
5 4 4 4 4 5 5 5 5 5 6 7 7 8 8 8 9 10 10 10 10 10 10 12 10 13 14 16 15 14 12 13 14 14 14 14 14 13 13 13 14 14 14 14 14 14 15 15 15 15 14 15 14 14
5 5 4 4 4 4 4 4 5 5 6 6 7 8 8 9 10 11 11 11 11 10 10 10 12 13 14 12 13 13 14 14 14 14 14 14 14 14 14 14 14 14 14 14 15 15 15 15 14 14 13 13 13 12
4 4 4 3 3 3 3 4 5 5 6 7 7 7 8 9 10 11 11 11 11 11 11 12 13 13 13 14 14 14 14 14 14 14 14 14 14 14 14 14 14 15 15 15 15 15 14 14 13 13 12 12 11 11
4 4 3 3 3 3 3 4 5 6 6 6 8 8 9 10 10 11 11 12 11 12 11 13 14 15 15 14 14 14 14 14 15 15 15 14 14 15 15 15 15 15 15 15 15 14 13 13 12 12 11 10 10 10
3 3 3 3 3 3 3 4 5 6 6 7 7 8 8 10 10 10 11 11 11 13 14 14 15 15 15 15 15 15 14 14 15 15 15 15 15 15 14 14 15 15 15 14 14 13 12 11 11 10 10 9 9 8
3 3 3 3 3 3 4 5 4 6 7 9 8 9 10 10 10 10 10 12 13 14 14 14 15 15 15 15 15 15 15 15 15 15 15 15 15 15 15 15 15 15 14 14 13 12 12 11 11 10 9 8 8 8
2 3 4 4 4 4 5 5 5 6 7 8 10 10 11 10 10 10 12 12 12 13 13 14 14 14 15 15 15 15 15 15 15 15 15 15 15 15 15 15 15 15 14 13 12 12 11 11 10 9 8 8 8 8
3 3 3 3 4 4 6 7 7 7 9 9 9 11 11 10 12 11 12 11 11 12 12 13 14 14 14 15 15 15 15 15 15 15 15 15 15 15 15 15 15 14 12 12 12 11 11 10 9 9 8 8 7 7
2 3 2 4 5 5 7 7 8 8 9 9 10 10 10 11 12 12 11 12 12 12 12 12 13 13 14 14 14 14 15 15 15 15 15 15 15 15 15 15 14 13 12 12 11 11 10 9 8 8 8 7 7 7
2 4 3 4 4 4 6 6 7 8 9 10 11 11 11 12 12 10 11 11 11 11 12 12 12 12 13 13 13 14 14 14 14 14 15 15 15 15 15 14 13 13 12 12 11 10 10 9 8 8 8 7 7 8
4 3 4 4 4 5 6 8 9 9 10 10 10 11 12 11 10 9 10 11 11 12 12 12 12 12 12 13 13 13 13 13 14 14 14 15 15 15 14 14 14 13 12 12 11 10 10 9 9 8 8 8 8 8
3 3 3 4 4 5 7 8 9 9 10 10 10 11 11 11 11 11 11 11 11 12 12 12 12 12 12 12 13 13 13 13 14 14 14 14 15 14 14 14 13 12 12 12 11 10 10 9 9 9 9 9 9 9
3 3 4 5 6 7 8 8 9 10 10 10 10 11 11 11 11 12 12 13 13 13 12 12 12 12 12 13 13 13 13 14 14 14 14 15 15 15 14 14 13 12 12 12 11 10 10 10 10 9 9 9 9 9
3 3 4 5 7 8 8 8 9 9 10 10 10 10 10 11 12 12 13 13 13 12 12 12 12 12 12 12 13 13 14 15 15 15 15 15 15 14 14 13 12 12 12 11 11 11 10 10 10 9 9 9 9 9
3 4 5 7 7 8 8 8 9 9 10 10 10 10 11 11 11 12 12 13 12 12 12 12 12 12 12 13 13 13 14 15 15 15 15 15 15 14 14 13 12 12 11 11 11 10 10 10 10 10 10 10 10 10
4 4 5 6 7 8 8 8 9 9 8 8 9 10 10 11 11 12 13 12 12 12 12 12 12 12 12 13 13 14 15 15 15 15 15 15 14 14 13 13 13 12 11 11 11 10 10 10 10 10 10 10 10 10
Height
1574 1570 1567 1563 1559 1555 1552 1549 1546 1543 1540 1537 1535 1533 1531 1529 1528 1526 1525 1524 1525 1521 1507 1503 1505 1503 1502 1502 1501 1493 1491 1481 1475 1469 1464 1459 1459 1456 1456 1459 1462 1465 1472 1476 1483 1481 1482 1464 1465 1466 1459 1454 1454 1454
1572 1569 1565 1561 1557 1553 1550 1547 1544 1541 1538 1535 1532 1530 1528 1526 1525 1524 1522 1521 1520 1517 1502 1497 1494 1493 1494 1497 1498 1497 1491 1492 1482 1470 1466 1463 1459 1460 1457 1460 1462 1463 1461 1463 1467 1462 1464 1464 1463 1459 1459 1457 1456 1452
1570 1567 1563 1559 1555 1551 1548 1545 1541 1538 1536 1533 1530 1527 1525 1523 1521 1520 1518 1517 1516 1511 1495 1487 1478 1481 1479 1479 1487 1494 1487 1485 1481 1480 1472 1464 1461 1460 1456 1459 1461 1464 1465 1462 1466 1462 1462 1462 1459 1458 1457 1456 1457 1456
1568 1565 1561 1557 1553 1550 1546 1542 1538 1535 1532 1529 1526 1524 1521 1519 1517 1515 1513 1512 1513 1511 1503 1479 1474 1475 1477 1478 1477 1480 1481 1481 1480 1478 1470 1462 1457 1461 1459 1460 1459 1463 1466 1465 1463 1460 1460 1461 1460 1460 1461 1460 1461 1461
1565 1563 1559 1555 1551 1547 1543 1539 1535 1532 1528 1525 1521 1519 1517 1514 1512 1509 1506 1504 1505 1510 1500 1480 1470 1464 1464 1468 1474 1477 1479 1481 1482 1475 1465 1458 1461 1460 1463 1462 1458 1462 1461 1460 1459 1461 1461 1463 1464 1464 1465 1466 1466 1467
1562 1559 1556 1552 1549 1545 1541 1536 1531 1528 1524 1521 1517 1514 1511 1509 1507 1505 1501 1499 1497 1501 1503 1488 1469 1462 1464 1464 1468 1473 1474 1478 1479 1476 1465 1461 1460 1461 1459 1462 1461 1461 1460 1461 1462 1461 1462 1463 1465 1466 1468 1470 1471 1473
1558 1555 1553 1549 1545 1542 1537 1533 1528 1524 1519 1515 1511 1508 1505 1504 1502 1503 1502 1499 1497 1498 1498 1488 1472 1463 1461 1464 1469 1470 1476 1475 1475 1473 1466 1462 1462 1462 1459 1459 1460 1461 1462 1462 1462 1463 1464 1465 1466 1467 1469 1471 1473 1473
1553 1551 1549 1545 1542 1538 1533 1529 1524 1519 1514 1509 1505 1502 1500 1499 1498 1496 1496 1496 1496 1496 1496 1490 1473 1466 1462 1460 1462 1467 1466 1470 1469 1467 1464 1463 1464 1463 1461 1462 1462 1463 1463 1463 1464 1464 1464 1465 1466 1468 1469 1471 1472 1474
1549 1546 1544 1541 1538 1534 1530 1525 1520 1515 1510 1504 1500 1497 1496 1495 1495 1495 1495 1494 1494 1498 1494 1488 1478 1463 1461 1461 1459 1461 1462 1465 1465 1463 1463 1464 1462 1459 1462 1464 1464 1464 1465 1464 1464 1465 1465 1466 1466 1467 1469 1470 1472 1474
1545 1542 1540 1537 1534 1530 1527 1522 1516 1511 1507 1501 1498 1496 1495 1495 1494 1495 1493 1493 1493 1491 1490 1484 1477 1471 1465 1459 1458 1457 1456 1459 1460 1464 1464 1461 1460 1463 1463 1464 1465 1464 1464 1464 1463 1464 1465 1466 1467 1467 1468 1470 1472 1474
1539 1537 1536 1533 1530 1527 1523 1519 1514 1509 1505 1501 1498 1496 1495 1493 1493 1492 1488 1488 1488 1485 1480 1475 1472 1469 1464 1461 1457 1457 1456 1458 1456 1462 1459 1462 1460 1464 1464 1465 1465 1464 1463 1462 1461 1462 1463 1464 1466 1467 1468 1471 1473 1476
1533 1532 1530 1529 1525 1522 1519 1516 1512 1509 1506 1503 1501 1497 1494 1493 1492 1493 1483 1482 1480 1472 1473 1471 1469 1467 1464 1462 1459 1458 1457 1459 1458 1463 1459 1459 1463 1465 1465 1465 1464 1462 1461 1460 1460 1459 1459 1461 1463 1464 1466 1469 1473 1475
1527 1526 1525 1523 1520 1518 1516 1513 1511 1507 1504 1501 1500 1498 1496 1494 1495 1491 1480 1475 1474 1474 1474 1471 1469 1465 1463 1461 1460 1459 1457 1461 1465 1461 1461 1462 1466 1465 1465 1465 1463 1462 1461 1460 1460 1459 1459 1460 1464 1466 1467 1471 1474 1477
1522 1521 1521 1518 1516 1514 1512 1510 1507 1504 1502 1502 1500 1498 1495 1492 1493 1487 1487 1485 1482 1477 1474 1471 1468 1465 1463 1462 1461 1456 1466 1463 1463 1463 1462 1465 1465 1466 1466 1466 1466 1465 1465 1465 1465 1465 1465 1467 1470 1470 1471 1474 1476 1479
1517 1516 1515 1513 1511 1510 1508 1506 1504 1502 1502 1501 1500 1497 1489 1487 1486 1487 1485 1483 1478 1475 1473 1470 1467 1467 1463 1461 1460 1460 1463 1464 1462 1462 1465 1465 1466 1467 1467 1468 1467 1467 1466 1466 1467 1468 1469 1470 1471 1472 1474 1476 1477 1478
1511 1512 1510 1509 1508 1506 1504 1502 1501 1501 1499 1499 1497 1492 1487 1486 1485 1484 1480 1480 1477 1473 1470 1469 1467 1463 1460 1461 1457 1457 1458 1460 1460 1464 1464 1465 1466 1466 1466 1466 1467 1467 1466 1465 1467 1468 1470 1471 1472 1473 1475 1476 1477 1478
1507 1507 1507 1505 1503 1502 1500 1500 1499 1498 1498 1495 1490 1487 1487 1485 1483 1481 1479 1476 1476 1473 1470 1467 1462 1465 1464 1460 1458 1459 1458 1461 1462 1464 1465 1466 1466 1467 1466 1467 1468 1469 1468 1468 1468 1469 1470 1471 1472 1473 1475 1475 1476 1476
1503 1503 1503 1501 1499 1498 1497 1498 1497 1496 1493 1489 1487 1484 1483 1482 1481 1478 1476 1476 1475 1472 1470 1469 1468 1464 1462 1457 1459 1461 1461 1462 1463 1464 1465 1466 1468 1468 1468 1470 1470 1471 1471 1470 1471 1471 1472 1472 1473 1473 1473 1472 1472 1472
1499 1499 1499 1498 1498 1497 1495 1496 1495 1492 1487 1485 1482 1481 1479 1478 1477 1475 1473 1472 1471 1472 1471 1469 1468 1465 1463 1463 1463 1462 1461 1462 1462 1463 1463 1465 1468 1469 1469 1470 1471 1471 1472 1472 1472 1473 1473 1473 1473 1473 1472 1472 1471 1471
1495 1496 1496 1496 1496 1496 1494 1493 1492 1489 1484 1482 1479 1477 1476 1474 1473 1471 1470 1469 1470 1470 1470 1468 1465 1463 1463 1463 1462 1462 1461 1462 1462 1463 1465 1466 1468 1469 1470 1471 1471 1472 1472 1472 1473 1473 1472 1472 1472 1471 1470 1469 1469 1469
1492 1493 1493 1494 1494 1494 1493 1489 1488 1486 1482 1480 1476 1475 1472 1469 1468 1468 1468 1468 1469 1468 1466 1464 1463 1463 1462 1462 1462 1462 1463 1463 1464 1465 1466 1467 1468 1469 1470 1470 1471 1471 1472 1472 1473 1472 1472 1471 1471 1470 1468 1467 1466 1465
1490 1491 1492 1492 1492 1492 1489 1486 1485 1484 1482 1477 1475 1472 1469 1466 1464 1463 1464 1465 1465 1463 1463 1462 1462 1462 1462 1462 1462 1462 1463 1464 1465 1466 1467 1468 1468 1469 1469 1470 1470 1470 1471 1471 1471 1470 1470 1469 1468 1465 1463 1462 1461 1460
1488 1489 1490 1491 1491 1489 1486 1484 1484 1480 1478 1474 1472 1470 1466 1464 1462 1462 1462 1461 1459 1459 1459 1459 1459 1460 1461 1461 1462 1462 1463 1465 1466 1467 1468 1468 1468 1468 1469 1469 1469 1469 1469 1469 1469 1469 1468 1466 1464 1461 1459 1458 1458 1457
1488 1488 1488 1487 1487 1485 1483 1481 1479 1477 1475 1472 1470 1466 1463 1461 1461 1461 1458 1457 1456 1456 1456 1457 1457 1458 1459 1460 1461 1463 1464 1465 1466 1467 1468 1468 1469 1469 1468 1468 1468 1468 1468 1468 1468 1468 1466 1464 1461 1460 1460 1461 1461 1461
1489 1487 1487 1484 1483 1483 1479 1476 1474 1474 1470 1469 1467 1462 1459 1459 1457 1457 1455 1456 1455 1455 1456 1456 1457 1457 1457 1458 1459 1461 1463 1464 1466 1467 1467 1468 1468 1468 1468 1468 1468 1467 1468 1469 1468 1467 1466 1465 1464 1464 1465 1465 1467 1469
1485 1481 1481 1478 1478 1477 1474 1471 1469 1468 1468 1465 1462 1460 1458 1456 1455 1454 1455 1456 1456 1456 1456 1456 1456 1456 1456 1456 1457 1459 1461 1462 1464 1465 1466 1467 1468 1469 1469 1468 1468 1469 1469 1469 1469 1469 1468 1468 1468 1468 1469 1472 1474 1475
1479 1476 1475 1474 1474 1474 1472 1469 1468 1467 1464 1461 1459 1458 1456 1454 1454 1458 1457 1457 1457 1457 1456 1456 1455 1456 1456 1456 1457 1458 1459 1461 1462 1464 1465 1466 1467 1468 1469 1469 1468 1469 1470 1470 1471 1471 1471 1471 1472 1473 1474 1476 1478 1479
1472 1471 1471 1471 1471 1471 1470 1467 1465 1462 1460 1459 1459 1455 1454 1456 1459 1458 1457 1456 1457 1457 1456 1455 1454 1454 1454 1455 1455 1456 1457 1458 1460 1462 1464 1465 1466 1467 1468 1468 1469 1470 1471 1472 1473 1473 1474 1475 1476 1478 1479 1481 1482 1483
1467 1467 1468 1467 1468 1468 1466 1464 1461 1459 1459 1458 1458 1457 1457 1457 1457 1457 1457 1456 1455 1455 1455 1454 1453 1452 1452 1453 1454 1455 1456 1457 1459 1461 1463 1464 1465 1467 1468 1469 1470 1471 1472 1473 1474 1476 1477 1478 1480 1481 1483 1484 1485 1486
1462 1462 1463 1463 1462 1459 1458 1458 1457 1457 1458 1458 1457 1457 1457 1456 1457 1456 1453 1453 1453 1452 1452 1452 1451 1450 1450 1451 1451 1452 1453 1455 1457 1460 1462 1463 1465 1467 1468 1470 1471 1472 1473 1475 1476 1477 1479 1481 1483 1484 1485 1486 1487 1488
1457 1458 1459 1458 1455 1453 1454 1455 1455 1455 1455 1455 1454 1455 1455 1454 1453 1453 1452 1451 1450 1450 1449 1449 1448 1448 1448 1448 1448 1450 1452 1454 1456 1459 1462 1463 1465 1467 1468 1470 1471 1473 1475 1476 1478 1479 1480 1482 1484 1485 1486 1487 1487 1488
1453 1454 1454 1453 1451 1451 1451 1451 1452 1452 1451 1451 1451 1451 1451 1451 1451 1449 1448 1448 1448 1447 1447 1446 1446 1446 1446 1447 1448 1450 1452 1454 1457 1460 1462 1463 1465 1467 1468 1470 1472 1474 1476 1478 1480 1481 1482 1484 1485 1486 1487 1488 1488 1489
1449 1450 1451 1451 1449 1447 1447 1449 1448 1447 1446 1445 1445 1445 1445 1447 1446 1445 1444 1444 1445 1444 1444 1444 1445 1446 1446 1447 1449 1450 1453 1455 1458 1460 1463 1464 1466 1468 1469 1470 1473 1475 1477 1479 1481 1483 1484 1485 1486 1487 1488 1488 1489 1489
Wind_Speed
21 22 22 21 20 20 19 18 17 18 19 17 16 15 14 11 12 14 10 8 12 10 27 26 23 21 19 11 3 9 13 0 4 4 4 3 3 3 3 4 6 6 7 4 3 5 9 2 4 7 4 4 5 6
22 23 22 21 20 19 19 18 17 18 19 19 17 15 15 14 13 11 14 6 5 17 26 26 36 40 35 20 11 7 8 16 6 4 1 1 2 2 1 4 1 4 1 2 6 1 2 5 11 15 15 10 7 7
20 22 23 22 20 19 18 19 19 19 19 19 18 17 17 16 15 13 15 14 14 15 28 20 19 10 6 19 17 12 9 7 4 8 5 2 2 2 3 2 3 1 0 2 2 2 3 3 5 5 4 6 7 8
21 21 21 22 21 20 19 20 20 20 20 19 19 18 19 18 17 16 17 16 13 9 6 12 12 22 10 11 25 30 29 15 16 18 6 3 1 1 2 2 0 2 3 3 2 4 2 6 8 10 11 13 13 13
20 21 21 21 22 22 22 22 23 22 20 20 19 19 20 20 18 19 21 22 19 10 6 17 39 8 9 22 27 26 23 27 13 7 4 2 1 2 2 1 1 3 2 2 2 1 2 2 6 12 12 15 17 23
20 21 20 21 22 22 23 24 23 22 21 21 21 21 21 19 17 16 7 4 5 19 5 5 11 8 4 20 24 24 22 19 9 5 4 3 1 2 2 2 1 4 5 5 1 3 2 6 7 9 11 11 14 17
19 21 21 21 22 23 24 26 25 23 22 23 23 22 18 16 16 10 5 6 9 13 5 7 6 4 4 5 16 27 23 10 7 5 4 1 1 3 1 2 4 3 4 3 3 4 2 6 4 11 10 8 10 12
18 19 21 21 22 23 24 26 26 25 24 24 22 18 15 13 11 10 8 8 8 8 4 3 5 6 5 4 5 14 13 13 7 4 2 2 3 1 2 2 4 0 1 2 3 2 4 5 9 10 8 9 10 6
19 19 20 21 22 23 24 26 26 25 25 23 17 14 12 4 3 3 6 6 7 8 4 4 3 3 8 0 3 8 9 4 4 3 1 1 1 2 2 5 7 3 2 3 1 2 2 3 4 6 7 10 8 8
19 19 20 21 22 22 23 25 26 26 25 17 10 4 2 1 3 8 3 4 9 7 7 5 4 4 5 4 0 3 2 3 4 1 0 1 1 0 3 5 7 6 5 6 6 4 5 5 6 7 8 8 8 6
18 18 20 21 21 22 22 23 22 26 21 15 9 4 6 7 1 2 4 5 6 4 7 7 6 4 3 2 2 3 1 1 3 2 2 1 1 2 2 4 8 9 8 8 9 12 14 12 7 6 10 6 3 4
16 18 19 21 20 20 20 19 20 24 19 17 14 14 7 2 1 2 3 3 4 2 2 3 3 5 5 3 2 2 0 1 2 1 1 1 2 1 4 7 11 13 13 12 8 6 7 7 7 9 8 7 8 9
16 17 18 20 19 19 18 16 20 20 16 6 3 4 2 2 2 3 3 0 2 3 3 7 5 3 3 2 2 1 1 2 1 1 1 2 1 1 4 7 10 12 12 12 10 6 4 6 9 12 16 15 14 11
15 16 17 17 17 15 14 17 18 14 5 1 2 4 3 1 3 2 5 5 9 8 14 11 5 3 2 1 1 1 1 0 2 1 2 1 3 1 3 6 8 7 5 6 10 13 15 16 14 13 10 8 9 8
14 15 16 14 12 13 16 17 11 5 3 2 3 3 4 6 9 5 16 18 19 20 11 6 5 2 2 1 1 3 3 2 1 1 1 2 3 1 1 3 4 4 2 4 5 4 5 7 6 8 9 8 6 3
13 14 12 11 13 14 15 10 5 2 2 3 5 4 7 5 8 5 19 15 11 16 12 3 2 2 1 1 2 2 5 2 2 2 4 4 2 1 3 3 3 5 5 1 3 4 5 6 6 7 5 2 2 1
11 9 10 13 15 14 9 4 2 2 3 4 5 9 12 12 9 14 13 14 17 10 2 2 2 5 4 1 2 1 1 1 4 5 5 6 5 5 5 8 8 8 8 9 9 8 6 5 3 1 2 4 5 6
9 7 10 12 14 9 4 4 3 3 6 8 6 4 4 9 11 12 16 15 9 7 4 1 2 2 3 0 2 1 2 4 2 1 3 7 6 6 9 5 5 4 5 3 5 6 4 1 2 5 9 10 9 9
7 8 8 8 8 6 2 4 4 4 8 7 9 13 10 10 13 20 20 17 13 7 5 2 2 2 1 2 2 2 4 4 1 1 2 8 10 6 6 4 2 2 4 4 5 7 7 6 5 6 6 5 5 7
8 7 5 4 5 3 3 3 4 5 4 3 10 10 8 7 11 13 12 9 3 2 2 2 2 2 2 3 1 1 3 5 5 7 7 9 8 7 4 2 3 3 4 7 4 0 2 2 4 8 11 10 9 10
6 5 4 4 3 5 4 3 5 5 5 5 9 8 6 10 11 10 7 5 4 3 3 4 5 4 6 5 0 3 6 8 8 7 9 6 5 4 0 5 4 4 6 5 3 4 5 6 7 10 11 11 12 13
4 5 4 4 3 3 5 6 5 5 4 6 7 4 5 4 3 4 5 4 5 8 10 11 10 7 3 2 1 4 6 8 10 9 7 4 2 2 3 1 3 5 7 7 6 6 7 8 13 15 14 13 12 10
4 4 3 4 4 4 4 4 3 3 3 3 3 3 3 3 2 3 3 5 6 10 12 13 13 9 5 1 4 5 7 8 9 8 5 3 3 5 5 2 2 2 5 6 6 7 10 15 15 13 10 5 5 3
4 2 3 3 6 4 3 3 4 4 3 3 2 3 3 2 2 3 2 2 3 4 3 3 3 7 8 6 8 8 8 8 8 4 3 4 4 1 3 4 5 3 2 2 4 10 12 12 11 8 11 10 12 15
2 4 4 5 4 3 3 3 3 3 3 3 2 3 2 2 2 2 1 1 3 1 3 2 2 2 6 8 11 11 10 8 8 5 4 5 3 3 2 2 2 2 4 4 8 9 9 8 10 14 13 14 19 21
3 5 7 6 3 4 4 2 3 4 2 2 4 3 2 3 2 1 1 4 7 7 5 4 3 1 1 4 7 10 11 10 7 5 3 6 5 2 2 2 3 3 3 5 6 7 8 11 13 16 21 22 22 19
4 5 7 7 4 3 5 6 5 4 3 3 2 2 2 2 1 2 1 3 6 9 8 3 2 2 2 1 3 6 8 8 6 6 6 8 5 2 3 3 4 4 4 5 6 8 10 14 18 19 19 17 15 14
7 4 6 6 6 5 3 3 2 2 2 2 2 2 2 2 1 2 5 5 9 11 8 9 4 4 5 6 4 5 6 8 11 8 9 6 7 6 6 4 5 6 6 7 10 11 12 15 17 17 15 13 13 14
5 5 6 5 5 5 6 5 3 3 2 1 1 1 2 3 4 7 10 15 14 11 7 8 6 5 4 6 7 6 6 7 12 13 11 10 11 12 8 6 5 8 9 10 13 13 13 13 13 12 11 11 11 10
5 9 5 5 5 6 7 10 5 6 4 5 4 4 5 6 6 10 12 6 6 6 6 7 10 7 6 7 8 9 8 10 12 12 13 15 14 11 10 7 8 11 10 9 9 11 11 11 10 9 7 5 4 3
3 9 5 5 4 8 13 11 9 10 9 9 10 8 7 7 10 11 7 8 9 7 6 10 11 7 8 7 7 9 9 9 10 11 9 6 11 12 9 9 10 13 12 10 9 8 9 8 7 6 5 4 3 3
7 10 6 4 4 7 6 4 4 5 6 7 6 8 8 7 5 6 9 4 5 7 9 9 5 3 2 5 8 10 11 13 13 11 9 8 11 13 10 10 12 13 12 11 9 9 9 7 6 6 6 5 4 3
8 6 7 4 3 3 5 5 3 3 5 5 8 14 13 9 7 8 10 11 11 10 8 5 3 6 4 6 9 11 13 14 12 10 7 6 11 10 9 11 13 13 12 11 10 8 7 6 5 4 3 2 2 2
Wind_Direction
345 344 343 342 342 341 340 341 340 340 336 334 332 328 321 316 318 314 307 281 244 258 271 266 257 266 271 283 282 327 319 210 278 223 216 196 227 174 133 133 167 165 162 173 146 201 242 65 151 213 0 301 255 232
342 341 339 338 340 341 340 337 337 337 336 335 334 329 324 316 308 300 298 272 257 249 258 274 283 271 259 241 275 262 271 302 279 301 257 253 193 196 166 162 65 177 217 169 215 197 11 282 274 283 296 275 261 195
339 339 340 342 341 341 338 336 334 333 330 328 325 321 316 313 308 296 286 289 290 279 293 276 283 307 269 228 213 234 265 225 254 340 302 311 253 221 131 110 122 99 90 200 211 164 260 303 292 289 283 261 211 152
332 335 339 342 344 342 338 333 331 330 327 325 322 318 314 310 308 296 281 280 266 268 274 283 297 294 286 197 199 244 256 260 300 307 257 263 264 256 101 92 95 63 163 160 266 271 273 75 79 99 96 103 126 140
328 329 333 336 339 340 339 334 331 330 326 323 320 316 310 307 305 297 291 279 259 226 290 290 302 312 321 193 211 237 247 250 283 295 251 4 68 180 70 183 107 189 163 202 77 359 44 65 101 119 115 114 114 121
323 322 324 328 332 334 335 334 330 327 327 323 316 312 307 303 299 302 299 342 257 218 264 293 303 307 352 180 206 232 254 237 234 286 294 299 314 316 101 101 268 222 210 213 341 155 157 140 127 115 109 119 125 132
317 316 318 323 325 328 331 334 330 328 329 324 315 310 302 296 282 255 255 291 337 189 246 283 284 298 337 173 177 197 229 217 213 247 254 299 359 343 45 118 158 165 116 77 130 114 74 158 149 133 127 134 144 125
308 308 313 318 323 326 328 329 328 329 331 324 316 307 300 292 276 277 236 276 243 204 253 279 278 307 3 226 143 183 204 191 225 267 246 221 168 219 224 359 348 219 178 100 129 269 292 210 183 179 182 172 170 170
302 306 309 314 319 323 325 328 327 329 334 327 317 308 301 264 240 219 258 303 236 226 286 253 284 320 338 5 201 176 177 173 206 230 214 276 147 197 23 342 347 340 351 299 11 304 294 243 225 224 210 204 207 223
300 304 307 312 317 321 323 327 326 330 337 334 325 316 292 242 268 303 275 200 193 216 228 251 247 263 314 334 319 182 130 131 177 108 256 220 178 270 11 355 346 343 309 286 295 298 284 290 274 258 232 220 222 219
294 301 307 311 315 318 322 328 328 334 344 355 340 289 313 303 208 238 234 208 187 226 216 239 238 270 289 294 334 19 108 124 182 107 264 105 191 124 9 18 7 13 1 330 292 276 279 274 269 277 227 211 219 186
287 298 306 309 312 315 321 324 329 331 333 325 304 300 314 342 31 280 247 188 223 284 239 260 310 263 287 277 282 61 147 200 110 343 215 175 91 57 31 25 22 19 14 9 347 306 291 290 258 234 212 198 160 145
285 298 305 307 309 311 317 318 326 323 326 332 318 297 306 329 31 263 274 100 334 348 341 331 322 296 278 262 286 290 59 62 306 86 104 24 101 122 31 24 25 20 15 15 19 30 59 109 129 134 129 127 128 126
284 298 303 304 306 308 310 320 321 325 321 305 290 292 211 179 279 333 322 317 308 292 314 313 276 261 288 225 264 173 44 198 79 133 72 36 185 220 349 3 8 6 23 64 90 101 109 116 119 117 119 130 134 131
287 299 302 304 297 306 314 318 317 312 261 249 250 248 237 215 222 281 306 299 298 300 303 295 280 266 266 248 252 123 153 107 200 138 134 173 141 127 334 14 347 339 317 190 162 138 135 129 106 120 128 129 122 91
290 304 302 295 303 311 316 310 304 248 245 237 234 267 258 243 263 294 300 278 317 328 312 293 288 266 142 313 203 79 131 175 135 139 150 120 94 338 306 307 354 16 20 55 189 156 125 138 123 131 130 135 315 256
294 300 294 298 307 317 306 276 227 226 240 242 244 244 258 277 272 292 287 302 329 329 319 326 323 22 300 217 116 0 80 58 122 122 132 126 93 73 95 132 106 78 75 84 93 108 117 123 126 102 280 274 253 250
293 284 280 292 311 322 246 216 231 231 245 248 252 266 248 259 279 283 281 305 323 314 307 359 308 323 311 216 99 139 160 139 127 158 167 164 139 126 119 142 99 87 100 97 110 113 110 109 282 282 288 287 275 258
298 279 268 285 311 324 246 215 220 255 245 262 267 276 271 272 263 272 285 299 297 257 284 274 254 256 270 234 266 177 180 185 152 112 177 179 180 172 142 154 145 159 146 133 114 96 67 53 24 349 325 300 281 277
280 269 266 269 289 275 267 235 223 256 264 277 278 274 275 263 275 284 291 298 231 222 241 235 238 252 252 346 321 171 164 161 146 127 123 137 156 165 172 210 185 163 140 136 143 172 354 335 328 334 320 306 292 284
262 250 246 252 268 237 259 243 239 245 283 269 282 292 271 268 267 262 260 250 190 226 253 250 267 306 320 341 59 164 154 149 148 133 135 138 141 149 289 193 172 184 188 194 234 269 286 294 304 313 305 295 287 280
214 216 220 223 245 250 260 232 243 281 268 269 290 250 268 269 248 223 191 180 222 237 233 256 280 300 338 340 141 159 162 151 142 130 130 120 154 205 175 176 248 231 224 240 270 290 306 322 329 322 311 304 302 294
193 183 202 205 236 239 259 231 246 234 249 258 275 258 241 251 238 178 226 222 228 239 240 246 262 265 258 239 158 162 158 151 135 123 112 79 86 126 132 71 29 268 255 287 311 328 332 335 330 327 332 357 21 52
156 192 220 232 214 255 249 235 230 251 252 249 242 264 240 237 228 218 244 230 231 248 226 232 247 224 222 217 197 181 178 168 163 127 75 140 129 119 322 341 352 349 294 309 349 347 354 351 359 42 72 82 89 97
228 220 210 241 225 237 236 234 225 227 245 227 248 253 239 227 237 217 264 311 1 131 156 147 135 193 215 214 210 197 192 199 207 238 259 202 194 16 62 81 73 97 108 33 11 16 22 38 73 90 90 99 116 112
232 219 197 207 213 216 213 242 218 220 237 245 236 260 254 211 223 217 336 61 81 70 63 66 65 52 37 215 205 199 199 202 214 228 242 206 185 80 91 101 68 87 63 34 38 57 73 93 107 107 109 114 119 118
242 231 220 222 228 250 262 252 258 261 251 233 247 251 261 253 100 9 58 53 49 30 18 339 277 272 240 211 188 184 193 204 210 222 219 198 197 198 169 91 96 81 107 88 92 88 94 114 116 117 116 118 124 128
233 236 211 192 208 226 272 277 243 237 253 243 272 261 348 65 84 142 264 348 335 339 336 344 296 307 252 220 209 203 221 230 210 198 179 189 202 204 181 124 108 136 129 114 114 103 107 121 124 127 125 124 129 134
234 217 195 217 211 223 224 227 240 235 226 194 290 348 70 22 327 318 309 303 305 311 312 346 341 304 273 237 228 230 243 210 196 193 202 196 186 174 169 143 141 152 142 134 131 123 120 121 131 133 132 134 137 142
231 197 206 208 211 214 219 208 228 247 272 286 278 290 307 319 304 315 313 303 298 290 288 306 326 297 276 276 260 234 228 207 206 211 200 189 185 180 161 149 159 158 142 135 139 145 143 143 145 145 142 141 145 161
221 186 214 223 242 230 231 246 261 262 273 271 272 287 294 307 303 305 297 300 302 296 292 309 307 278 275 276 223 198 194 192 178 175 179 190 194 177 158 155 159 159 147 139 130 132 141 144 155 163 168 170 176 175
199 197 205 219 234 242 229 228 230 230 248 260 267 272 272 279 275 278 271 266 293 293 300 311 293 252 243 194 186 178 175 170 170 174 168 161 177 174 169 162 158 159 155 150 145 134 129 135 134 132 129 127 122 113
202 203 216 260 245 226 204 196 220 253 239 243 243 241 236 233 241 254 265 276 289 288 278 252 218 177 168 180 179 170 165 165 164 162 151 143 157 172 169 155 155 155 155 155 151 148 143 136 140 151 167 187 237 283